Location: Augustenthal
(51.7167°N, 10.2833°E)
Time: 00:29:01
(UTC+00:00)

ISS - Pass Details

Date: 29 September 2021
Orbit: 417 x 423 km, 51.6° (Epoch: 15 October)

Event Time Altitude Azimuth Distance (km) Brightness Sun altitude
Rises 19:43:23 0° 283° (WNW) 2,370 1.3 -25.1°
Reaches altitude 10° 19:45:42 10° 270° (W) 1,504 -0.2 -25.4°
Enters shadow 19:47:08 19° 250° (WSW) 1,070 -1.3 -25.6°
